CPA169 LPPR-LPFR

Flight info

Callsign CPA169
Flight time N/A
Altitude 37000
Route MANIK DCT INBOM DCT ALAGU
Aircraft A359/H-SDE2E3GHIJ3J4J5LM1ORWXY/LB1D1

Departure

Time 2026-05-04 15:39
Airport Francisco de Sá Carneiro Airport (LPPR)

Arrival

Time N/A
Airport Faro - Gago Coutinho International Airport (LPFR)
Time Latitude Longitude Altitude Speed Heading
2026-05-04 15:37 41.23365 -8.67748 245 ft 0 kts 349°
2026-05-04 15:38 41.23514 -8.67788 238 ft 60 kts 348°
2026-05-04 15:38 41.24190 -8.67964 220 ft 135 kts 349°
2026-05-04 15:39 41.25275 -8.68254 547 ft 168 kts 343°
2026-05-04 15:39 41.26403 -8.68574 1563 ft 164 kts 344°
2026-05-04 15:39 41.28953 -8.69258 2639 ft 218 kts 346°
2026-05-04 15:40 41.30528 -8.69660 3266 ft 238 kts 346°
2026-05-04 15:40 41.32178 -8.70079 4154 ft 245 kts 346°
2026-05-04 15:40 41.33871 -8.70513 5065 ft 251 kts 346°
2026-05-04 15:40 41.35601 -8.70963 6034 ft 255 kts 346°
2026-05-04 15:41 41.37362 -8.71426 6985 ft 261 kts 346°
2026-05-04 15:41 41.39149 -8.71989 7892 ft 268 kts 347°
2026-05-04 15:41 41.41036 -8.71890 8899 ft 278 kts 10°
2026-05-04 15:41 41.42802 -8.70751 9920 ft 291 kts 37°
2026-05-04 15:42 41.44029 -8.68590 10641 ft 311 kts 64°
2026-05-04 15:42 41.44429 -8.65653 11043 ft 339 kts 93°
2026-05-04 15:42 41.43764 -8.62586 11609 ft 354 kts 120°
2026-05-04 15:42 41.42146 -8.60117 12456 ft 357 kts 146°
2026-05-04 15:43 41.39917 -8.58709 13311 ft 357 kts 169°
2026-05-04 15:43 41.37450 -8.58307 14167 ft 359 kts 181°
2026-05-04 15:43 41.34940 -8.58241 14990 ft 363 kts 183°
2026-05-04 15:43 41.32399 -8.58111 15828 ft 368 kts 180°
2026-05-04 15:44 41.29833 -8.57771 16662 ft 374 kts 177°
2026-05-04 15:44 41.27243 -8.57215 17533 ft 380 kts 174°
2026-05-04 15:44 41.24635 -8.56496 18401 ft 386 kts 172°
2026-05-04 15:44 41.22006 -8.55680 19168 ft 391 kts 172°
2026-05-04 15:45 41.19349 -8.54815 19935 ft 396 kts 171°
2026-05-04 15:45 41.16658 -8.53932 20708 ft 400 kts 172°
2026-05-04 15:45 41.13954 -8.53051 21463 ft 404 kts 172°
2026-05-04 15:45 41.11198 -8.52166 22239 ft 408 kts 173°
2026-05-04 15:46 41.08422 -8.51286 22982 ft 413 kts 173°
2026-05-04 15:46 41.05613 -8.50403 23695 ft 418 kts 173°
2026-05-04 15:46 41.02781 -8.49518 24016 ft 419 kts 173°
2026-05-04 15:46 40.99942 -8.48630 24085 ft 420 kts 173°
2026-05-04 15:47 40.97091 -8.47741 24099 ft 422 kts 173°
2026-05-04 15:47 40.94236 -8.46849 24094 ft 423 kts 173°
2026-05-04 15:47 40.91367 -8.45950 24104 ft 424 kts 173°
2026-05-04 15:47 40.88490 -8.45051 24405 ft 426 kts 173°
2026-05-04 15:48 40.85595 -8.44148 25041 ft 429 kts 173°
2026-05-04 15:48 40.82687 -8.43242 25704 ft 431 kts 173°
2026-05-04 15:48 40.76788 -8.41412 26918 ft 439 kts 174°
2026-05-04 15:49 40.73794 -8.40488 27485 ft 444 kts 174°
2026-05-04 15:49 40.70777 -8.39556 28059 ft 448 kts 174°
2026-05-04 15:49 40.67724 -8.38612 28666 ft 451 kts 174°
2026-05-04 15:49 40.64656 -8.37662 29229 ft 455 kts 174°
2026-05-04 15:50 40.61559 -8.36703 29781 ft 459 kts 174°
2026-05-04 15:50 40.58432 -8.35735 30288 ft 463 kts 174°
2026-05-04 15:51 40.48860 -8.32783 31608 ft 475 kts 174°
2026-05-04 15:51 40.45629 -8.31788 32028 ft 478 kts 174°
2026-05-04 15:51 40.42388 -8.30790 32442 ft 481 kts 174°
2026-05-04 15:51 40.39114 -8.29784 32791 ft 485 kts 174°
2026-05-04 15:52 40.35817 -8.28772 33182 ft 488 kts 174°
2026-05-04 15:52 40.32504 -8.27756 33566 ft 491 kts 174°
2026-05-04 15:52 40.29174 -8.26735 33928 ft 494 kts 174°
2026-05-04 15:52 40.25808 -8.25705 34253 ft 496 kts 174°
2026-05-04 15:53 40.22433 -8.24674 34516 ft 500 kts 174°
2026-05-04 15:53 40.19039 -8.23638 34825 ft 501 kts 174°
2026-05-04 15:53 40.15640 -8.22600 35248 ft 500 kts 174°
2026-05-04 15:53 40.12254 -8.21564 35653 ft 500 kts 173°
2026-05-04 15:54 40.08866 -8.20528 36022 ft 499 kts 173°
2026-05-04 15:54 40.05491 -8.19500 36381 ft 499 kts 173°
2026-05-04 15:54 40.02102 -8.18472 36728 ft 499 kts 173°
2026-05-04 15:54 39.98716 -8.17446 36997 ft 501 kts 173°
2026-05-04 15:55 39.91921 -8.15389 37040 ft 501 kts 173°
2026-05-04 15:55 39.85128 -8.13334 37038 ft 501 kts 173°
2026-05-04 15:56 39.78388 -8.11299 37036 ft 501 kts 173°
2026-05-04 15:56 39.71600 -8.09254 37036 ft 501 kts 173°
2026-05-04 15:57 39.64819 -8.07216 37029 ft 500 kts 173°
2026-05-04 15:57 39.58037 -8.05183 37027 ft 500 kts 173°
2026-05-04 15:58 39.51259 -8.03155 37028 ft 500 kts 173°
2026-05-04 15:58 39.44485 -8.01132 37024 ft 500 kts 173°
2026-05-04 15:59 39.37708 -7.99111 37025 ft 500 kts 173°
2026-05-04 15:59 39.30934 -7.97096 37018 ft 499 kts 173°
2026-05-04 16:00 39.24165 -7.95086 37022 ft 499 kts 173°
2026-05-04 16:00 39.17395 -7.93080 37020 ft 499 kts 173°
2026-05-04 16:01 39.10634 -7.91080 37019 ft 499 kts 174°
2026-05-04 16:01 39.03869 -7.89083 37023 ft 498 kts 174°
2026-05-04 16:02 38.97118 -7.87094 37015 ft 498 kts 174°
2026-05-04 16:03 38.86986 -7.84117 37011 ft 497 kts 174°